Location: Oberwangen
(47.4286°N, 8.9679°E)
Time: 11:12:16
(UTC+00:00)

Cosmos 1816 Rocket - Pass Details

Date: 19 October 2021
Orbit: 952 x 998 km, 82.9° (Epoch: 08 December)

Event Time Altitude Azimuth Distance (km) Brightness Sun altitude
Rises 19:43:25 0° 352° (N) 3,644 7.9 -33.1°
Reaches altitude 10° 19:45:56 10° 354° (N) 2,697 7.1 -33.5°
Enters shadow 19:49:15 34° 0° (N) 1,534 5.6 -34.0°
